User: anonymous   Login
Location: Caltech
(34.1382°N, 118.1253°W)
Time: 01:23:46
(UTC-07:00)
Language:

PAYLOAD A - Orbit

View from above orbital plane
View from above orbital plane
View from above satellite
View from above satellite

Ground track
Ground track

The orbit data is extracted from the following two-line orbital elements,

1 27840U 03031A   17116.91521855 -.00000016 +00000-0 +86733-5 0  9990
2 27840 098.2044 116.6330 0096965 273.6632 085.3472 14.38879665725846
Epoch (UTC): 26 April 2017 21:57:54
Eccentricity: 0.0096965
inclination: 98.2044°
perigee height: 693 km
apogee height: 831 km
right ascension of ascending node: 116.6330°
argument of perigee: 273.6632°
revolutions per day: 14.38879665
mean anomaly at epoch: 85.3472°
orbit number at epoch: 72584

The dashed part of the orbit path shows where the satellite is in the earth's shadow,  

DLR